{"data":{"norad_id":62288,"intl_designator":"2024-237X","name":"STARLINK-33565","alt_names":[],"object_type":"PAYLOAD","status":"ACTIVE","operator":null,"country":"US","launch_date":"2024-12-08","launch_site_code":"AFETR","launch_vehicle":null,"mission":null,"orbit_class":"UNKNOWN","rcs_meters":null,"size_class":null,"mass_kg":null,"dimensions":null,"purposes":["comms"],"wikipedia_slug":null,"has_3d_model":false,"image_url":null,"decayed_at":null,"tle_current":{"epoch":"2026-09-21T03:17:05.047008Z","epoch_age_seconds":122889,"freshness":"FRESH","line1":"1 62288U 24237X   26264.13686397  .00011012  00000+0  40905-3 0  9992","line2":"2 62288  42.9993 181.2746 0002272 251.3822 108.6783 15.27583583101214","mean_motion":15.27583583,"eccentricity":0.0002272,"inclination_deg":42.9993,"raan_deg":181.2746,"arg_perigee_deg":251.3822,"mean_anomaly_deg":108.6783,"bstar":0.00040905,"rev_number":10121,"period_min":94.26652760774,"perigee_km":481.4795082262,"apogee_km":484.59722631309,"semimajor_km":6861.1753672696,"source":"CELESTRAK","updated_at":"2026-09-22T09:00:49.570193Z"}}}